This is the latest recevied weather packets stored in our database for station/object SV9TNF-2. If no packets are shown the sender has not sent any weather packets the latest 10 day(s).
| Time | Temp. | Humidity | Pressure | Rain* | Wind** | Luminosity | Snow |
|---|---|---|---|---|---|---|---|
| 1777501177 | 14.44° C | 58% | 1022.4 hPa | 0 mm | 6.26 m/s, 102° | - | - |
| 1777500876 | 14.44° C | 58% | 1022.4 hPa | 0 mm | 5.81 m/s, 198° | - | - |
| 1777500576 | 14.44° C | 58% | 1022.4 hPa | 0 mm | 6.26 m/s, 151° | - | - |
| 1777500276 | 14.44° C | 58% | 1022.4 hPa | 0 mm | 6.26 m/s, 228° | - | - |
| 1777499976 | 14.44° C | 59% | 1022.4 hPa | 0 mm | 6.71 m/s, 200° | - | - |
| 1777499676 | 14.44° C | 59% | 1022.4 hPa | 0 mm | 5.81 m/s, 210° | - | - |
| 1777499376 | 14.44° C | 60% | 1022.4 hPa | 0 mm | 8.05 m/s, 192° | - | - |
| 1777499076 | 14.44° C | 60% | 1022.4 hPa | 0 mm | 7.6 m/s, 199° | - | - |
| 1777498776 | 14.44° C | 60% | 1022.4 hPa | 0 mm | 5.81 m/s, 198° | - | - |
| 1777498476 | 14.44° C | 60% | 1022.7 hPa | 0 mm | 7.15 m/s, 189° | - | - |
| 1777498175 | 14.44° C | 61% | 1022.7 hPa | 0 mm | 5.81 m/s, 190° | - | - |
| 1777497875 | 14.44° C | 60% | 1022.7 hPa | 0 mm | 7.6 m/s, 201° | - | - |
| 1777497575 | 14.44° C | 60% | 1022.7 hPa | 0 mm | 8.49 m/s, 186° | - | - |
| 1777497275 | 14.44° C | 62% | 1022.7 hPa | 0 mm | 7.15 m/s, 177° | - | - |
| 1777496975 | 14.44° C | 62% | 1022.7 hPa | 0 mm | 5.81 m/s, 208° | - | - |
| 1777496675 | 14.44° C | 61% | 1022.7 hPa | 0 mm | 7.15 m/s, 171° | - | - |
| 1777496375 | 14.44° C | 62% | 1022.7 hPa | 0 mm | 5.81 m/s, 193° | - | - |
| 1777496075 | 14.44° C | 63% | 1022.7 hPa | 0 mm | 7.6 m/s, 195° | - | - |
| 1777495775 | 15° C | 63% | 1022.7 hPa | 0 mm | 4.92 m/s, 180° | - | - |
| 1777495474 | 15° C | 61% | 1022.7 hPa | 0 mm | 8.05 m/s, 175° | - | - |
| 1777495174 | 15° C | 62% | 1022.7 hPa | 0 mm | 8.05 m/s, 199° | - | - |
| 1777494874 | 15° C | 63% | 1022.7 hPa | 0 mm | 6.71 m/s, 155° | - | - |
| 1777494574 | 15° C | 63% | 1022.7 hPa | 0 mm | 7.6 m/s, 180° | - | - |
| 1777494274 | 15° C | 63% | 1022.7 hPa | 0 mm | 7.15 m/s, 186° | - | - |
| 1777493974 | 15° C | 63% | 1022.7 hPa | 0 mm | 5.81 m/s, 262° | - | - |
* Rain latest hour (hover to see other rain measurements)
** Current wind speed in m/s (hover to see current wind gust speed)